Location: Étouvelles
(49.5207°N, 3.5808°E)
Time: 05:16:27
(UTC+00:00)

Cosmos 2333 - Pass Details

Date: 03 February 2023
Orbit: 828 x 867 km, 70.9° (Epoch: 30 March)

Event Time Altitude Azimuth Distance (km) Brightness Sun altitude
Rises 18:33:06 0° 188° (S) 3,359 7.5 -17.8°
Reaches altitude 10° 18:35:34 10° 183° (S) 2,433 6.7 -18.2°
Maximum altitude 18:40:55 49° 110° (ESE) 1,073 4.3 -19.1°
Enters shadow 18:43:17 30° 55° (NE) 1,454 5.0 -19.5°
